| time (UTC) | temp F | wind direction | speed MPH | gust MPH | rain 1hr in | rain 24hr in | rain mn in | humidity % | barometer mb |
| 20260504035022 | 60 | 156 | 0.0 | 0.0 | 0.00 | 0.00 | 0.00 | 72 | 1008.7 |
| 20260504034535 | 61 | 156 | 0.0 | 0.0 | 0.00 | 0.00 | 0.00 | 72 | 1008.7 |
| 20260504034027 | 61 | 156 | 0.0 | 0.0 | 0.00 | 0.00 | 0.00 | 72 | 1008.8 |
| 20260504033539 | 61 | 156 | 0.0 | 0.0 | 0.00 | 0.00 | 0.00 | 71 | 1008.9 |
| 20260504033031 | 61 | 155 | 0.0 | 0.0 | 0.00 | 0.00 | 0.00 | 70 | 1008.9 |
| 20260504032524 | 62 | 153 | 0.0 | 0.0 | 0.00 | 0.00 | 0.00 | 68 | 1008.8 |
| 20260504032037 | 62 | 153 | 0.0 | 0.0 | 0.00 | 0.00 | 0.00 | 66 | 1008.7 |
| 20260504031532 | 63 | 153 | 0.0 | 0.0 | 0.00 | 0.00 | 0.00 | 65 | 1008.8 |
| 20260504031027 | 63 | 154 | 0.0 | 0.0 | 0.00 | 0.00 | 0.00 | 64 | 1008.7 |
| 20260504030536 | 63 | 153 | 0.0 | 0.0 | 0.00 | 0.00 | 0.00 | 63 | 1008.7 |
| 20260504030039 | 64 | 154 | 0.0 | 0.0 | 0.00 | 0.00 | 0.00 | 64 | 1008.7 |
| 20260504025526 | 64 | 153 | 0.0 | 0.0 | 0.00 | 0.00 | 0.00 | 62 | 1008.7 |
| 20260504025022 | 64 | 153 | 0.0 | 0.0 | 0.00 | 0.00 | 0.00 | 61 | 1008.7 |
| 20260504024532 | 64 | 153 | 0.0 | 0.0 | 0.00 | 0.00 | 0.00 | 61 | 1008.7 |
| 20260504024031 | 65 | 154 | 0.0 | 0.0 | 0.00 | 0.00 | 0.00 | 59 | 1008.7 |
| 20260504023523 | 65 | 153 | 0.0 | 0.0 | 0.00 | 0.00 | 0.00 | 59 | 1008.7 |
| 20260504023035 | 66 | 154 | 0.0 | 1.0 | 0.00 | 0.00 | 0.00 | 58 | 1008.7 |
| 20260504022530 | 66 | 153 | 0.0 | 1.0 | 0.00 | 0.00 | 0.00 | 58 | 1008.7 |
| 20260504022027 | 66 | 143 | 0.0 | 0.0 | 0.00 | 0.00 | 0.00 | 57 | 1008.6 |
| 20260504021536 | 67 | 143 | 0.0 | 0.0 | 0.00 | 0.00 | 0.00 | 55 | 1008.5 |
| 20260504021031 | 67 | 143 | 0.0 | 0.0 | 0.00 | 0.00 | 0.00 | 53 | 1008.5 |
| 20260504020539 | 68 | 226 | 0.0 | 0.0 | 0.00 | 0.00 | 0.00 | 53 | 1008.4 |
| 20260504020035 | 68 | 226 | 0.0 | 0.0 | 0.00 | 0.00 | 0.00 | 51 | 1008.5 |
| 20260504015528 | 69 | 226 | 0.0 | 0.0 | 0.00 | 0.00 | 0.00 | 51 | 1008.6 |
| 20260504015027 | 69 | 226 | 0.0 | 0.0 | 0.00 | 0.00 | 0.00 | 50 | 1008.4 |
| 20260504014539 | 70 | 226 | 0.0 | 0.0 | 0.00 | 0.00 | 0.00 | 50 | 1008.4 |
| 20260504014030 | 70 | 226 | 0.0 | 0.0 | 0.00 | 0.00 | 0.00 | 49 | 1008.4 |
| 20260504013525 | 71 | 226 | 0.0 | 0.0 | 0.00 | 0.00 | 0.00 | 48 | 1008.3 |
| 20260504013035 | 71 | 227 | 0.0 | 0.0 | 0.00 | 0.00 | 0.00 | 47 | 1008.4 |
| 20260504012528 | 71 | 226 | 0.0 | 0.0 | 0.00 | 0.00 | 0.00 | 47 | 1008.4 |
| 20260504012024 | 72 | 226 | 0.0 | 0.0 | 0.00 | 0.00 | 0.00 | 44 | 1008.4 |
| 20260504011534 | 72 | 225 | 0.0 | 0.0 | 0.00 | 0.00 | 0.00 | 44 | 1008.4 |
| 20260504011028 | 73 | 225 | 0.0 | 0.0 | 0.00 | 0.00 | 0.00 | 44 | 1008.4 |
| 20260504010525 | 74 | 225 | 0.0 | 0.0 | 0.00 | 0.00 | 0.00 | 44 | 1008.4 |
| 20260504010036 | 74 | 225 | 0.0 | 0.0 | 0.00 | 0.00 | 0.00 | 43 | 1008.5 |
| 20260504005528 | 75 | 225 | 0.0 | 0.0 | 0.00 | 0.00 | 0.00 | 42 | 1008.5 |
| 20260504005023 | 75 | 224 | 0.0 | 1.0 | 0.00 | 0.00 | 0.00 | 40 | 1008.6 |
| 20260504004535 | 75 | 155 | 0.0 | 1.0 | 0.00 | 0.00 | 0.00 | 41 | 1008.7 |
| 20260504004029 | 75 | 173 | 0.0 | 0.0 | 0.00 | 0.00 | 0.00 | 42 | 1008.7 |
| 20260504003524 | 75 | 173 | 0.0 | 1.0 | 0.00 | 0.00 | 0.00 | 42 | 1008.7 |
| 20260504003043 | 76 | 172 | 0.0 | 1.0 | 0.00 | 0.00 | 0.00 | 39 | 1008.7 |
| 20260504002529 | 76 | 114 | 0.0 | 2.0 | 0.00 | 0.00 | 0.00 | 40 | 1008.8 |
| 20260504002023 | 76 | 104 | 0.0 | 3.0 | 0.00 | 0.00 | 0.00 | 38 | 1008.8 |
| 20260504001534 | 76 | 162 | 0.0 | 1.0 | 0.00 | 0.00 | 0.00 | 38 | 1008.9 |
| 20260504001030 | 76 | 123 | 0.0 | 2.0 | 0.00 | 0.00 | 0.00 | 38 | 1008.8 |
| 20260504000524 | 76 | 104 | 0.0 | 2.0 | 0.00 | 0.00 | 0.00 | 37 | 1008.9 |
| 20260504000036 | 76 | 129 | 0.0 | 2.0 | 0.00 | 0.00 | 0.00 | 38 | 1008.9 |
| 20260503235530 | 76 | 113 | 0.0 | 2.0 | 0.00 | 0.00 | 0.00 | 38 | 1008.8 |
| 20260503235024 | 76 | 109 | 0.0 | 2.0 | 0.00 | 0.00 | 0.00 | 38 | 1008.9 |
| 20260503234532 | 76 | 115 | 0.0 | 2.0 | 0.00 | 0.00 | 0.00 | 38 | 1009.2 |
| 20260503234032 | 76 | 115 | 0.0 | 2.0 | 0.00 | 0.00 | 0.00 | 39 | 1009.2 |
| 20260503233526 | 76 | 119 | 0.0 | 5.0 | 0.00 | 0.00 | 0.00 | 37 | 1009.1 |
| 20260503233022 | 76 | 113 | 0.0 | 7.0 | 0.00 | 0.00 | 0.00 | 37 | 1009.1 |
| 20260503232532 | 76 | 114 | 1.0 | 8.0 | 0.00 | 0.00 | 0.00 | 38 | 1009.1 |
| 20260503232032 | 76 | 124 | 0.0 | 5.0 | 0.00 | 0.00 | 0.00 | 38 | 1009.0 |
| 20260503231527 | 76 | 94 | 2.0 | 5.0 | 0.00 | 0.00 | 0.00 | 37 | 1009.2 |
| 20260503231034 | 76 | 160 | 0.0 | 5.0 | 0.00 | 0.00 | 0.00 | 37 | 1009.3 |
| 20260503230530 | 76 | 113 | 0.0 | 3.0 | 0.00 | 0.00 | 0.00 | 37 | 1009.4 |
| 20260503230028 | 76 | 116 | 0.0 | 4.0 | 0.00 | 0.00 | 0.00 | 37 | 1009.6 |
| 20260503225527 | 76 | 120 | 0.0 | 5.0 | 0.00 | 0.00 | 0.00 | 38 | 1009.7 |
| 20260503225032 | 76 | 111 | 1.0 | 5.0 | 0.00 | 0.00 | 0.00 | 37 | 1009.7 |
| 20260503224528 | 76 | 114 | 0.0 | 2.0 | 0.00 | 0.00 | 0.00 | 39 | 1009.8 |
| 20260503224038 | 76 | 123 | 0.0 | 2.0 | 0.00 | 0.00 | 0.00 | 40 | 1009.9 |
| 20260503223530 | 76 | 110 | 0.0 | 3.0 | 0.00 | 0.00 | 0.00 | 39 | 1010.0 |
| 20260503223038 | 76 | 132 | 0.0 | 3.0 | 0.00 | 0.00 | 0.00 | 37 | 1010.2 |
| 20260503222530 | 76 | 196 | 0.0 | 2.0 | 0.00 | 0.00 | 0.00 | 37 | 1010.2 |
| 20260503222025 | 76 | 114 | 0.0 | 2.0 | 0.00 | 0.00 | 0.00 | 39 | 1010.5 |
| 20260503221523 | 76 | 107 | 0.0 | 4.0 | 0.00 | 0.00 | 0.00 | 39 | 1010.5 |
| 20260503221032 | 75 | 116 | 1.0 | 4.0 | 0.00 | 0.00 | 0.00 | 38 | 1010.7 |
| 20260503220533 | 75 | 118 | 0.0 | 2.0 | 0.00 | 0.00 | 0.00 | 38 | 1010.8 |
| 20260503220039 | 75 | 108 | 0.0 | 3.0 | 0.00 | 0.00 | 0.00 | 38 | 1010.9 |
| 20260503215535 | 75 | 139 | 0.0 | 3.0 | 0.00 | 0.00 | 0.00 | 39 | 1011.0 |
| 20260503215031 | 75 | 110 | 0.0 | 3.0 | 0.00 | 0.00 | 0.00 | 39 | 1010.9 |
| 20260503214526 | 75 | 117 | 0.0 | 5.0 | 0.00 | 0.00 | 0.00 | 38 | 1011.0 |
| 20260503214035 | 75 | 88 | 1.0 | 7.0 | 0.00 | 0.00 | 0.00 | 38 | 1011.3 |
| 20260503213522 | 76 | 94 | 1.0 | 4.0 | 0.00 | 0.00 | 0.00 | 38 | 1011.5 |
| 20260503213031 | 76 | 159 | 1.0 | 4.0 | 0.00 | 0.00 | 0.00 | 37 | 1011.6 |
| 20260503212525 | 76 | 150 | 0.0 | 4.0 | 0.00 | 0.00 | 0.00 | 39 | 1011.8 |
| 20260503212023 | 75 | 197 | 2.0 | 4.0 | 0.00 | 0.00 | 0.00 | 38 | 1011.9 |
| 20260503211532 | 76 | 119 | 0.0 | 4.0 | 0.00 | 0.00 | 0.00 | 38 | 1012.0 |
| 20260503211028 | 75 | 107 | 0.0 | 4.0 | 0.00 | 0.00 | 0.00 | 39 | 1012.1 |
| 20260503210523 | 75 | 112 | 0.0 | 4.0 | 0.00 | 0.00 | 0.00 | 39 | 1012.4 |
| 20260503210032 | 75 | 119 | 1.0 | 5.0 | 0.00 | 0.00 | 0.00 | 39 | 1012.4 |
| 20260503205529 | 75 | 110 | 1.0 | 6.0 | 0.00 | 0.00 | 0.00 | 40 | 1012.6 |
| 20260503205037 | 75 | 98 | 1.0 | 7.0 | 0.00 | 0.00 | 0.00 | 40 | 1012.6 |
| 20260503204522 | 73 | 131 | 1.0 | 6.0 | 0.00 | 0.00 | 0.00 | 39 | 1012.8 |
| 20260503204018 | 73 | 111 | 1.0 | 6.0 | 0.00 | 0.00 | 0.00 | 39 | 1013.1 |
| 20260503203533 | 73 | 103 | 1.0 | 7.0 | 0.00 | 0.00 | 0.00 | 40 | 1013.1 |
| 20260503203032 | 74 | 132 | 3.0 | 7.0 | 0.00 | 0.00 | 0.00 | 39 | 1013.3 |
| 20260503202524 | 74 | 131 | 1.0 | 6.0 | 0.00 | 0.00 | 0.00 | 40 | 1013.4 |
| 20260503202034 | 74 | 108 | 2.0 | 6.0 | 0.00 | 0.00 | 0.00 | 40 | 1013.6 |
| 20260503201528 | 74 | 184 | 0.0 | 4.0 | 0.00 | 0.00 | 0.00 | 41 | 1013.7 |
| 20260503201023 | 73 | 140 | 0.0 | 4.0 | 0.00 | 0.00 | 0.00 | 41 | 1013.8 |
| 20260503200534 | 73 | 148 | 1.0 | 5.0 | 0.00 | 0.00 | 0.00 | 40 | 1014.0 |
| 20260503200026 | 73 | 131 | 0.0 | 5.0 | 0.00 | 0.00 | 0.00 | 41 | 1014.0 |
| 20260503195522 | 73 | 110 | 1.0 | 5.0 | 0.00 | 0.00 | 0.00 | 40 | 1014.1 |
| 20260503195033 | 73 | 166 | 0.0 | 4.0 | 0.00 | 0.00 | 0.00 | 41 | 1014.2 |
| 20260503194529 | 73 | 133 | 0.0 | 5.0 | 0.00 | 0.00 | 0.00 | 43 | 1014.3 |
| 20260503194024 | 73 | 97 | 1.0 | 5.0 | 0.00 | 0.00 | 0.00 | 41 | 1014.4 |
| 20260503193535 | 73 | 194 | 1.0 | 5.0 | 0.00 | 0.00 | 0.00 | 41 | 1014.4 |
| 20260503193034 | 73 | 120 | 2.0 | 6.0 | 0.00 | 0.00 | 0.00 | 40 | 1014.5 |
| 20260503192525 | 73 | 210 | 0.0 | 5.0 | 0.00 | 0.00 | 0.00 | 42 | 1014.6 |
| 20260503192035 | 73 | 227 | 1.0 | 5.0 | 0.00 | 0.00 | 0.00 | 43 | 1014.6 |
| 20260503191530 | 73 | 134 | 0.0 | 4.0 | 0.00 | 0.00 | 0.00 | 43 | 1014.7 |
| 20260503191026 | 73 | 194 | 0.0 | 4.0 | 0.00 | 0.00 | 0.00 | 43 | 1014.8 |
| 20260503190520 | 72 | 217 | 0.0 | 6.0 | 0.00 | 0.00 | 0.00 | 44 | 1014.8 |
| 20260503190033 | 72 | 158 | 0.0 | 6.0 | 0.00 | 0.00 | 0.00 | 43 | 1015.0 |
| 20260503185527 | 72 | 165 | 0.0 | 4.0 | 0.00 | 0.00 | 0.00 | 43 | 1015.0 |
| 20260503185023 | 71 | 113 | 0.0 | 4.0 | 0.00 | 0.00 | 0.00 | 43 | 1015.0 |
| 20260503184533 | 72 | 123 | 0.0 | 4.0 | 0.00 | 0.00 | 0.00 | 41 | 1015.1 |
| 20260503184028 | 72 | 117 | 1.0 | 5.0 | 0.00 | 0.00 | 0.00 | 40 | 1014.9 |
| 20260503183538 | 72 | 111 | 1.0 | 5.0 | 0.00 | 0.00 | 0.00 | 42 | 1015.0 |
| 20260503183050 | 72 | 141 | 0.0 | 5.0 | 0.00 | 0.00 | 0.00 | 43 | 1015.0 |
| 20260503182531 | 72 | 204 | 0.0 | 6.0 | 0.00 | 0.00 | 0.00 | 44 | 1015.1 |
| 20260503182029 | 72 | 123 | 1.0 | 6.0 | 0.00 | 0.00 | 0.00 | 43 | 1015.4 |
| 20260503181535 | 72 | 116 | 1.0 | 4.0 | 0.00 | 0.00 | 0.00 | 42 | 1015.4 |
| 20260503181029 | 72 | 166 | 0.0 | 4.0 | 0.00 | 0.00 | 0.00 | 43 | 1015.5 |
| 20260503180535 | 71 | 197 | 0.0 | 7.0 | 0.00 | 0.00 | 0.00 | 45 | 1015.9 |
| 20260503180035 | 71 | 84 | 1.0 | 7.0 | 0.00 | 0.00 | 0.00 | 44 | 1016.1 |
| 20260503175530 | 71 | 145 | 0.0 | 6.0 | 0.00 | 0.00 | 0.00 | 44 | 1016.2 |
| 20260503175029 | 71 | 169 | 1.0 | 6.0 | 0.00 | 0.00 | 0.00 | 45 | 1016.0 |
| 20260503174535 | 70 | 143 | 0.0 | 3.0 | 0.00 | 0.00 | 0.00 | 48 | 1016.0 |
| 20260503174032 | 70 | 98 | 0.0 | 3.0 | 0.00 | 0.00 | 0.00 | 49 | 1016.0 |
| 20260503173527 | 70 | 131 | 0.0 | 2.0 | 0.00 | 0.00 | 0.00 | 50 | 1016.2 |
| 20260503173021 | 69 | 104 | 0.0 | 3.0 | 0.00 | 0.00 | 0.00 | 50 | 1016.4 |
| 20260503172536 | 69 | 304 | 0.0 | 3.0 | 0.00 | 0.00 | 0.00 | 49 | 1016.4 |
| 20260503172028 | 69 | 231 | 0.0 | 1.0 | 0.00 | 0.00 | 0.00 | 52 | 1016.6 |
| 20260503171524 | 69 | 195 | 0.0 | 3.0 | 0.00 | 0.00 | 0.00 | 54 | 1016.7 |
| 20260503171035 | 68 | 140 | 0.0 | 3.0 | 0.00 | 0.00 | 0.00 | 52 | 1016.7 |
| 20260503170527 | 68 | 233 | 0.0 | 1.0 | 0.00 | 0.00 | 0.00 | 51 | 1016.7 |
| 20260503150524 | 57 | 34 | 1.0 | 5.0 | 0.00 | 0.00 | 0.00 | 73 | 1017.4 |
| 20260503131030 | 51 | 356 | 0.0 | 2.0 | 0.00 | 0.00 | 0.00 | 83 | 1017.2 |
| 20260503130526 | 51 | 13 | 0.0 | 3.0 | 0.00 | 0.00 | 0.00 | 82 | 1017.1 |
| 20260503110521 | 51 | 8 | 0.0 | 1.0 | 0.00 | 0.00 | 0.00 | 83 | 1016.7 |
| 20260503081534 | 53 | 32 | 0.0 | 0.0 | 0.00 | 0.11 | 0.00 | 79 | 1017.4 |
| 20260503081024 | 54 | 32 | 0.0 | 1.0 | 0.00 | 0.11 | 0.00 | 79 | 1017.4 |
| 20260503080534 | 54 | 32 | 0.0 | 2.0 | 0.00 | 0.11 | 0.00 | 78 | 1017.4 |
| 20260503072524 | 54 | 18 | 0.0 | 3.0 | 0.00 | 0.11 | 0.00 | 78 | 1017.8 |
| 20260503072037 | 54 | 41 | 0.0 | 1.0 | 0.00 | 0.11 | 0.00 | 78 | 1017.8 |
| 20260503071530 | 54 | 20 | 0.0 | 1.0 | 0.00 | 0.11 | 0.00 | 78 | 1018.0 |
| 20260503071026 | 54 | 20 | 0.0 | 0.0 | 0.00 | 0.11 | 0.00 | 77 | 1018.1 |
| 20260503070523 | 54 | 20 | 0.0 | 0.0 | 0.00 | 0.11 | 0.00 | 77 | 1018.1 |
| 20260503055022 | 57 | 20 | 0.0 | 2.0 | 0.00 | 0.11 | 0.11 | 71 | 1017.2 |
| 20260503054543 | 57 | 20 | 0.0 | 2.0 | 0.00 | 0.11 | 0.11 | 71 | 1017.2 |
| 20260503054031 | 57 | 41 | 0.0 | 1.0 | 0.00 | 0.11 | 0.11 | 70 | 1017.2 |
| 20260503053525 | 57 | 41 | 0.0 | 2.0 | 0.00 | 0.11 | 0.11 | 70 | 1017.1 |
| 20260503053034 | 57 | 8 | 0.0 | 2.0 | 0.00 | 0.11 | 0.11 | 69 | 1017.1 |
| 20260503052532 | 57 | 19 | 0.0 | 2.0 | 0.00 | 0.11 | 0.11 | 69 | 1017.1 |
| 20260503052026 | 57 | 27 | 0.0 | 2.0 | 0.00 | 0.11 | 0.11 | 69 | 1017.2 |
| 20260503051522 | 58 | 5 | 0.0 | 1.0 | 0.00 | 0.11 | 0.11 | 69 | 1017.2 |
| 20260503051033 | 58 | 46 | 0.0 | 2.0 | 0.00 | 0.11 | 0.11 | 68 | 1017.2 |
| 20260503050528 | 58 | 348 | 0.0 | 2.0 | 0.00 | 0.11 | 0.11 | 68 | 1017.3 |
| 20260503050040 | 58 | 42 | 0.0 | 1.0 | 0.00 | 0.11 | 0.11 | 69 | 1017.2 |
| 20260503045536 | 58 | 32 | 0.0 | 1.0 | 0.00 | 0.11 | 0.11 | 69 | 1017.2 |
| 20260503045026 | 58 | 34 | 0.0 | 2.0 | 0.00 | 0.11 | 0.11 | 69 | 1017.2 |
| 20260503044522 | 58 | 337 | 0.0 | 2.0 | 0.00 | 0.11 | 0.11 | 69 | 1017.1 |
| 20260503044034 | 58 | 24 | 0.0 | 2.0 | 0.00 | 0.11 | 0.11 | 69 | 1017.1 |
| 20260503043528 | 58 | 351 | 0.0 | 4.0 | 0.00 | 0.11 | 0.11 | 70 | 1017.0 |
| 20260503043022 | 58 | 349 | 0.0 | 4.0 | 0.00 | 0.11 | 0.11 | 71 | 1017.0 |
| 20260503042533 | 58 | 19 | 0.0 | 2.0 | 0.00 | 0.11 | 0.11 | 72 | 1017.1 |
| 20260503042028 | 58 | 11 | 0.0 | 2.0 | 0.00 | 0.11 | 0.11 | 73 | 1017.0 |
| 20260503041545 | 57 | 32 | 0.0 | 2.0 | 0.00 | 0.11 | 0.11 | 73 | 1017.1 |
| 20260503041030 | 57 | 39 | 0.0 | 0.0 | 0.00 | 0.11 | 0.11 | 74 | 1017.1 |
| 20260503040537 | 57 | 38 | 0.0 | 0.0 | 0.00 | 0.11 | 0.11 | 74 | 1017.1 |
| 20260503040036 | 57 | 38 | 0.0 | 0.0 | 0.00 | 0.11 | 0.11 | 74 | 1017.0 |
| 20260503035525 | 57 | 38 | 0.0 | 1.0 | 0.00 | 0.11 | 0.11 | 74 | 1017.1 |